Location: Unspecified
(49.8670°N, 0.0000°E)
Time: 18:18:48
(UTC+00:00)

Vanguard 2 Rocket - Visible Passes

Search period start: 24 June 2019 00:00
Search period end: 04 July 2019 00:00
Orbit: 555 x 3326 km, 32.9° (Epoch: 24 June)

Date Brightness Start Highest point End Pass type
(mag) Time Alt. Az. Time Alt. Az. Time Alt. Az.
24 Jun 9.7 02:08:52 10° WSW 02:20:02 28° SSW 02:34:42 10° SSE visible
24 Jun 8.9 20:46:38 10° SSW 20:52:21 22° SSE 21:00:33 10° ESE visible
24 Jun 8.9 22:56:40 10° SW 23:05:07 34° S 23:18:20 10° ESE visible
25 Jun 9.5 01:09:02 10° WSW 01:19:24 31° SSW 01:34:02 10° SE visible
25 Jun 8.8 21:58:09 10° SW 22:05:17 30° SSE 22:16:23 10° ESE visible
26 Jun 9.2 00:09:41 10° WSW 00:18:57 32° S 00:32:50 10° SE visible
26 Jun 9.9 02:23:54 10° WSW 02:33:30 21° SSW 02:45:38 10° SSE visible
26 Jun 8.8 21:00:00 10° SSW 21:05:49 24° SSE 21:14:25 10° ESE visible
26 Jun 9.0 23:10:42 10° WSW 23:18:47 32° S 23:31:19 10° SE visible
27 Jun 9.6 01:23:42 10° WSW 01:33:00 25° SSW 01:45:40 10° SSE visible
27 Jun 8.8 22:12:02 10° SW 22:18:57 29° S 22:29:39 10° ESE visible
28 Jun 9.3 00:24:07 10° WSW 00:32:40 27° SSW 00:45:01 10° SE visible
28 Jun 10.0 02:40:17 10° WSW 02:46:59 15° SSW 02:54:51 10° S visible
28 Jun 8.7 21:13:42 10° SW 21:19:25 25° SSE 21:28:01 10° ESE visible
28 Jun 9.1 23:24:58 10° WSW 23:32:33 28° S 23:43:55 10° SE visible
29 Jun 9.7 01:39:07 10° WSW 01:46:38 18° SSW 01:56:13 10° S visible
29 Jun 8.8 22:26:10 10° SW 22:32:43 27° S 22:42:38 10° SE visible
30 Jun 9.5 00:39:03 10° WSW 00:46:25 20° SSW 00:56:24 10° SSE visible
30 Jun 8.7 21:27:40 10° SW 21:33:10 24° S 21:41:18 10° SE visible
30 Jun 9.2 23:39:36 10° WSW 23:46:22 22° SSW 23:48:05 21° S visible
01 Jul10.102:08:52S02:08:52S01:53:41WSWvisible
01 Jul 9.0 22:40:36 10° SW 22:46:34 22° S 22:50:03 19° SSE visible
02 Jul 9.8 00:55:09 10° SW 00:55:43 11° SW 00:55:43 11° SW visible
02 Jul 8.8 21:41:55 10° SW 21:46:59 21° S 21:52:31 13° SE visible
02 Jul 9.4 23:54:58 10° SW 23:58:13 15° SSW 23:58:13 15° SSW visible
03 Jul 9.2 22:55:32 10° SW 23:00:27 17° SSW 23:01:00 17° S visible
